User: anonymous   Login
Location: Langangen
(59.1000°N, 9.8000°E)
Time: 01:29:13
(UTC+02:00)
Language:

Iridium 60 - Orbit

View from above orbital plane
View from above orbital plane
View from above satellite
View from above satellite

Ground track
Ground track

The orbit data is extracted from the following two-line orbital elements,

1 25276U 98019E   18109.60576833 +.00000090 +00000-0 +24898-4 0  9990
2 25276 086.3973 158.9356 0002418 093.7977 266.3495 14.34221284049777
Epoch (UTC): 19 April 2018 14:32:18
Eccentricity: 0.0002418
inclination: 86.3973°
perigee height: 776 km
apogee height: 779 km
right ascension of ascending node: 158.9356°
argument of perigee: 93.7977°
revolutions per day: 14.34221284
mean anomaly at epoch: 266.3495°
orbit number at epoch: 4977

The dashed part of the orbit path shows where the satellite is in the earth's shadow,  

DLR